| time (UTC) | temp F | wind direction | speed knots | gust knots | rain 1hr in | rain 24hr in | rain mn in | humidity % | barometer mb |
| 20260505224418 | 64 | 313 | 0.0 | 0.0 | 0.00 | 0.00 | 0.00 | 31 | 1006.3 |
| 20260505224001 | 63 | 313 | 0.0 | 0.0 | 0.00 | 0.00 | 0.00 | 31 | 1006.3 |
| 20260505223916 | 64 | 313 | 0.0 | 0.0 | 0.00 | 0.00 | 0.00 | 31 | 1006.3 |
| 20260505223532 | 63 | 14 | 0.0 | 0.0 | 0.00 | 0.00 | 0.00 | 30 | 1006.3 |
| 20260505223407 | 64 | 14 | 0.0 | 0.0 | 0.00 | 0.00 | 0.00 | 31 | 1006.3 |
| 20260505223014 | 63 | 14 | 0.0 | 0.0 | 0.00 | 0.00 | 0.00 | 31 | 1006.3 |
| 20260505222907 | 64 | 300 | 0.0 | 0.0 | 0.00 | 0.00 | 0.00 | 31 | 1006.4 |
| 20260505222527 | 63 | 295 | 0.0 | 0.0 | 0.00 | 0.00 | 0.00 | 30 | 1006.3 |
| 20260505222358 | 64 | 295 | 0.0 | 0.0 | 0.00 | 0.00 | 0.00 | 30 | 1006.3 |
| 20260505222058 | 63 | 295 | 0.0 | 0.0 | 0.00 | 0.00 | 0.00 | 30 | 1006.5 |
| 20260505221921 | 63 | 295 | 0.0 | 0.0 | 0.00 | 0.00 | 0.00 | 30 | 1006.5 |
| 20260505221530 | 63 | 295 | 0.0 | 0.0 | 0.00 | 0.00 | 0.00 | 30 | 1006.5 |
| 20260505221425 | 63 | 295 | 0.0 | 0.0 | 0.00 | 0.00 | 0.00 | 30 | 1006.5 |
| 20260505221004 | 63 | 295 | 0.0 | 0.0 | 0.00 | 0.00 | 0.00 | 30 | 1006.4 |
| 20260505220917 | 63 | 295 | 0.0 | 0.0 | 0.00 | 0.00 | 0.00 | 29 | 1006.5 |
| 20260505220537 | 63 | 295 | 0.0 | 0.0 | 0.00 | 0.00 | 0.00 | 29 | 1006.4 |
| 20260505220407 | 63 | 295 | 0.0 | 0.0 | 0.00 | 0.00 | 0.00 | 29 | 1006.5 |
| 20260505220056 | 63 | 295 | 0.0 | 0.0 | 0.00 | 0.00 | 0.00 | 28 | 1006.5 |
| 20260505215856 | 63 | 34 | 0.0 | 0.0 | 0.00 | 0.00 | 0.00 | 28 | 1006.5 |
| 20260505215524 | 63 | 34 | 0.0 | 0.0 | 0.00 | 0.00 | 0.00 | 28 | 1006.5 |
| 20260505215417 | 63 | 34 | 0.0 | 0.0 | 0.00 | 0.00 | 0.00 | 28 | 1006.5 |
| 20260505215052 | 63 | 34 | 0.0 | 0.0 | 0.00 | 0.00 | 0.00 | 28 | 1006.5 |
| 20260505214903 | 63 | 34 | 0.0 | 0.0 | 0.00 | 0.00 | 0.00 | 28 | 1006.5 |
| 20260505214530 | 63 | 25 | 0.0 | 0.0 | 0.00 | 0.00 | 0.00 | 28 | 1006.5 |
| 20260505214443 | 63 | 14 | 0.0 | 0.0 | 0.00 | 0.00 | 0.00 | 28 | 1006.6 |
| 20260505214042 | 63 | 271 | 0.0 | 0.0 | 0.00 | 0.00 | 0.00 | 27 | 1006.5 |
| 20260505213921 | 63 | 271 | 0.0 | 0.0 | 0.00 | 0.00 | 0.00 | 27 | 1006.6 |
| 20260505213508 | 63 | 241 | 0.0 | 0.0 | 0.00 | 0.00 | 0.00 | 27 | 1006.5 |
| 20260505213413 | 63 | 241 | 0.0 | 0.0 | 0.00 | 0.00 | 0.00 | 27 | 1006.5 |
| 20260505213038 | 63 | 242 | 0.0 | 0.0 | 0.00 | 0.00 | 0.00 | 28 | 1006.5 |
| 20260505212906 | 63 | 241 | 0.0 | 0.0 | 0.00 | 0.00 | 0.00 | 28 | 1006.5 |
| 20260505212513 | 63 | 241 | 0.0 | 0.0 | 0.00 | 0.00 | 0.00 | 28 | 1006.5 |
| 20260505212404 | 63 | 241 | 0.0 | 0.0 | 0.00 | 0.00 | 0.00 | 28 | 1006.6 |
| 20260505212024 | 63 | 241 | 0.0 | 0.0 | 0.00 | 0.00 | 0.00 | 27 | 1006.6 |
| 20260505211856 | 63 | 241 | 0.0 | 0.0 | 0.00 | 0.00 | 0.00 | 27 | 1006.6 |
| 20260505211610 | 63 | 242 | 0.0 | 0.0 | 0.00 | 0.00 | 0.00 | 27 | 1006.6 |
| 20260505211420 | 63 | 241 | 0.0 | 0.0 | 0.00 | 0.00 | 0.00 | 27 | 1006.6 |
| 20260505211017 | 63 | 241 | 0.0 | 0.0 | 0.00 | 0.00 | 0.00 | 27 | 1006.6 |
| 20260505210907 | 63 | 241 | 0.0 | 0.0 | 0.00 | 0.00 | 0.00 | 26 | 1006.7 |
| 20260505210553 | 63 | 242 | 0.0 | 0.0 | 0.00 | 0.00 | 0.00 | 26 | 1006.7 |
| 20260505210402 | 63 | 242 | 0.0 | 0.0 | 0.00 | 0.00 | 0.00 | 26 | 1006.7 |
| 20260505210029 | 63 | 242 | 0.0 | 0.0 | 0.00 | 0.00 | 0.00 | 25 | 1006.7 |
| 20260505205902 | 63 | 242 | 0.0 | 0.0 | 0.00 | 0.00 | 0.00 | 24 | 1006.7 |
| 20260505205603 | 62 | 241 | 0.0 | 0.0 | 0.00 | 0.00 | 0.00 | 24 | 1006.7 |
| 20260505205420 | 63 | 241 | 0.0 | 0.0 | 0.00 | 0.00 | 0.00 | 24 | 1006.7 |
| 20260505205034 | 62 | 241 | 0.0 | 0.0 | 0.00 | 0.00 | 0.00 | 22 | 1006.7 |
| 20260505204909 | 63 | 241 | 0.0 | 0.0 | 0.00 | 0.00 | 0.00 | 22 | 1006.7 |
| 20260505204601 | 62 | 241 | 0.0 | 0.0 | 0.00 | 0.00 | 0.00 | 22 | 1006.7 |
| 20260505204408 | 62 | 241 | 0.0 | 0.0 | 0.00 | 0.00 | 0.00 | 21 | 1006.8 |
| 20260505204029 | 62 | 241 | 0.0 | 0.0 | 0.00 | 0.00 | 0.00 | 21 | 1006.7 |
| 20260505203947 | 62 | 241 | 0.0 | 0.0 | 0.00 | 0.00 | 0.00 | 21 | 1006.8 |
| 20260505203546 | 61 | 241 | 0.0 | 0.0 | 0.00 | 0.00 | 0.00 | 21 | 1006.9 |
| 20260505203421 | 62 | 241 | 0.0 | 0.0 | 0.00 | 0.00 | 0.00 | 20 | 1006.9 |
| 20260505203006 | 61 | 241 | 0.0 | 0.0 | 0.00 | 0.00 | 0.00 | 21 | 1006.9 |
| 20260505202914 | 62 | 241 | 0.0 | 0.0 | 0.00 | 0.00 | 0.00 | 21 | 1006.8 |
| 20260505202546 | 61 | 241 | 0.0 | 0.0 | 0.00 | 0.00 | 0.00 | 20 | 1006.9 |
| 20260505202408 | 62 | 241 | 0.0 | 0.0 | 0.00 | 0.00 | 0.00 | 20 | 1006.9 |
| 20260505202025 | 61 | 240 | 0.0 | 0.0 | 0.00 | 0.00 | 0.00 | 20 | 1006.9 |
| 20260505201906 | 62 | 240 | 0.0 | 0.0 | 0.00 | 0.00 | 0.00 | 19 | 1006.9 |
| 20260505201559 | 61 | 230 | 0.0 | 0.0 | 0.00 | 0.00 | 0.00 | 18 | 1006.9 |
| 20260505201409 | 61 | 263 | 0.0 | 0.0 | 0.00 | 0.00 | 0.00 | 19 | 1006.9 |
| 20260505201040 | 61 | 263 | 0.0 | 0.0 | 0.00 | 0.00 | 0.00 | 19 | 1007.0 |
| 20260505200909 | 61 | 263 | 0.0 | 0.0 | 0.00 | 0.00 | 0.00 | 19 | 1007.0 |
| 20260505200509 | 61 | 263 | 0.0 | 0.0 | 0.00 | 0.00 | 0.00 | 20 | 1007.0 |
| 20260505200401 | 61 | 263 | 0.0 | 0.0 | 0.00 | 0.00 | 0.00 | 20 | 1007.0 |
| 20260505200050 | 61 | 263 | 0.0 | 0.0 | 0.00 | 0.00 | 0.00 | 20 | 1007.0 |
| 20260505195900 | 61 | 263 | 0.0 | 0.0 | 0.00 | 0.00 | 0.00 | 20 | 1007.0 |
| 20260505195557 | 61 | 263 | 0.0 | 0.0 | 0.00 | 0.00 | 0.00 | 20 | 1007.0 |
| 20260505195402 | 62 | 263 | 0.0 | 0.0 | 0.00 | 0.00 | 0.00 | 20 | 1007.0 |
| 20260505195036 | 61 | 263 | 0.0 | 0.0 | 0.00 | 0.00 | 0.00 | 21 | 1007.0 |
| 20260505194905 | 62 | 263 | 0.0 | 0.0 | 0.00 | 0.00 | 0.00 | 20 | 1007.0 |
| 20260505194600 | 61 | 250 | 0.0 | 0.0 | 0.00 | 0.00 | 0.00 | 19 | 1007.1 |
| 20260505194352 | 62 | 250 | 0.0 | 0.0 | 0.00 | 0.00 | 0.00 | 18 | 1007.0 |
| 20260505194018 | 61 | 250 | 0.0 | 0.0 | 0.00 | 0.00 | 0.00 | 18 | 1007.0 |
| 20260505193920 | 62 | 250 | 0.0 | 0.0 | 0.00 | 0.00 | 0.00 | 17 | 1007.0 |
| 20260505193557 | 61 | 250 | 0.0 | 0.0 | 0.00 | 0.00 | 0.00 | 16 | 1007.0 |
| 20260505193415 | 62 | 250 | 0.0 | 0.0 | 0.00 | 0.00 | 0.00 | 17 | 1007.0 |
| 20260505193027 | 61 | 250 | 0.0 | 0.0 | 0.00 | 0.00 | 0.00 | 17 | 1007.0 |
| 20260505192905 | 61 | 250 | 0.0 | 0.0 | 0.00 | 0.00 | 0.00 | 17 | 1007.0 |
| 20260505192549 | 61 | 250 | 0.0 | 0.0 | 0.00 | 0.00 | 0.00 | 17 | 1007.0 |
| 20260505192356 | 61 | 250 | 0.0 | 0.0 | 0.00 | 0.00 | 0.00 | 17 | 1007.1 |
| 20260505192024 | 61 | 250 | 0.0 | 0.0 | 0.00 | 0.00 | 0.00 | 15 | 1007.1 |
| 20260505191916 | 62 | 134 | 0.0 | 0.0 | 0.00 | 0.00 | 0.00 | 16 | 1007.0 |
| 20260505191558 | 61 | 134 | 0.0 | 0.0 | 0.00 | 0.00 | 0.00 | 14 | 1007.0 |
| 20260505191410 | 62 | 273 | 0.0 | 0.0 | 0.00 | 0.00 | 0.00 | 12 | 1007.1 |
| 20260505191028 | 61 | 271 | 0.0 | 0.0 | 0.00 | 0.00 | 0.00 | 9 | 1007.0 |
| 20260505190905 | 61 | 275 | 0.0 | 0.0 | 0.00 | 0.00 | 0.00 | 8 | 1007.0 |
| 20260505190559 | 60 | 275 | 0.0 | 0.0 | 0.00 | 0.00 | 0.00 | 6 | 1007.0 |
| 20260505190425 | 61 | 275 | 0.0 | 0.0 | 0.00 | 0.00 | 0.00 | 5 | 1007.1 |
| 20260505190019 | 60 | 275 | 0.0 | 0.0 | 0.00 | 0.00 | 0.00 | 2 | 1007.0 |
| 20260505185912 | 60 | 275 | 0.0 | 0.0 | 0.00 | 0.00 | 0.00 | 100 | 1007.1 |
| 20260505185557 | 59 | 275 | 0.0 | 0.0 | 0.00 | 0.00 | 0.00 | 100 | 1007.1 |
| 20260505185406 | 60 | 275 | 0.0 | 0.0 | 0.00 | 0.00 | 0.00 | 1 | 1007.1 |
| 20260505185028 | 59 | 275 | 0.0 | 0.0 | 0.00 | 0.00 | 0.00 | 100 | 1007.1 |
| 20260505184926 | 60 | 275 | 0.0 | 0.0 | 0.00 | 0.00 | 0.00 | 100 | 1007.0 |
| 20260505184554 | 59 | 275 | 0.0 | 0.0 | 0.00 | 0.00 | 0.00 | 100 | 1007.0 |
| 20260505184430 | 59 | 275 | 0.0 | 0.0 | 0.00 | 0.00 | 0.00 | 100 | 1007.0 |
| 20260505184005 | 58 | 275 | 0.0 | 0.0 | 0.00 | 0.00 | 0.00 | 100 | 1007.1 |
| 20260505183903 | 59 | 275 | 0.0 | 0.0 | 0.00 | 0.00 | 0.00 | 100 | 1007.1 |
| 20260505183543 | 58 | 275 | 0.0 | 0.0 | 0.00 | 0.00 | 0.00 | 100 | 1007.2 |
| 20260505183420 | 59 | 275 | 0.0 | 0.0 | 0.00 | 0.00 | 0.00 | 100 | 1007.2 |
| 20260505183001 | 58 | 275 | 0.0 | 0.0 | 0.00 | 0.00 | 0.00 | 100 | 1007.2 |
| 20260505182909 | 58 | 275 | 0.0 | 0.0 | 0.00 | 0.00 | 0.00 | 100 | 1007.2 |
| 20260505182533 | 57 | 271 | 0.0 | 0.0 | 0.00 | 0.00 | 0.00 | 100 | 1007.1 |
| 20260505182408 | 58 | 237 | 0.0 | 0.0 | 0.00 | 0.00 | 0.00 | 100 | 1007.1 |
| 20260505182044 | 57 | 237 | 0.0 | 0.0 | 0.00 | 0.00 | 0.00 | 100 | 1007.0 |
| 20260505181902 | 57 | 237 | 0.0 | 0.0 | 0.00 | 0.00 | 0.00 | 100 | 1007.0 |
| 20260505181516 | 56 | 237 | 0.0 | 0.0 | 0.00 | 0.00 | 0.00 | 100 | 1007.1 |
| 20260505181355 | 57 | 237 | 0.0 | 0.0 | 0.00 | 0.00 | 0.00 | 100 | 1007.0 |
| 20260505181039 | 56 | 237 | 0.0 | 0.0 | 0.00 | 0.00 | 0.00 | 100 | 1007.0 |
| 20260505180914 | 57 | 237 | 0.0 | 0.0 | 0.00 | 0.00 | 0.00 | 100 | 1007.0 |
| 20260505180553 | 56 | 236 | 0.0 | 0.0 | 0.00 | 0.00 | 0.00 | 100 | 1007.0 |
| 20260505180408 | 56 | 237 | 0.0 | 0.0 | 0.00 | 0.00 | 0.00 | 100 | 1007.0 |
| 20260505180024 | 55 | 180 | 0.0 | 0.0 | 0.00 | 0.00 | 0.00 | 100 | 1007.1 |
| 20260505175928 | 56 | 180 | 0.0 | 0.0 | 0.00 | 0.00 | 0.00 | 100 | 1007.1 |
| 20260505175548 | 55 | 180 | 0.0 | 0.0 | 0.00 | 0.00 | 0.00 | 100 | 1007.1 |
| 20260505175422 | 56 | 180 | 0.0 | 0.0 | 0.00 | 0.00 | 0.00 | 100 | 1007.1 |
| 20260505175050 | 55 | 180 | 0.0 | 0.0 | 0.00 | 0.00 | 0.00 | 100 | 1007.1 |
| 20260505174857 | 56 | 180 | 0.0 | 0.0 | 0.00 | 0.00 | 0.00 | 100 | 1007.1 |
| 20260505174538 | 55 | 180 | 0.0 | 0.0 | 0.00 | 0.00 | 0.00 | 100 | 1007.1 |
| 20260505174359 | 56 | 180 | 0.0 | 0.0 | 0.00 | 0.00 | 0.00 | 100 | 1007.1 |
| 20260505174001 | 55 | 180 | 0.0 | 0.0 | 0.00 | 0.00 | 0.00 | 100 | 1007.0 |
| 20260505173919 | 55 | 180 | 0.0 | 0.0 | 0.00 | 0.00 | 0.00 | 100 | 1007.0 |
| 20260505173511 | 55 | 180 | 0.0 | 0.0 | 0.00 | 0.00 | 0.00 | 100 | 1007.0 |
| 20260505173418 | 55 | 180 | 0.0 | 0.0 | 0.00 | 0.00 | 0.00 | 100 | 1007.0 |
| 20260505173048 | 55 | 180 | 0.0 | 0.0 | 0.00 | 0.00 | 0.00 | 100 | 1007.0 |
| 20260505172912 | 55 | 180 | 0.0 | 0.0 | 0.00 | 0.00 | 0.00 | 100 | 1007.0 |
| 20260505172512 | 55 | 180 | 0.0 | 0.0 | 0.00 | 0.00 | 0.00 | 100 | 1006.9 |
| 20260505172403 | 55 | 180 | 0.0 | 0.0 | 0.00 | 0.00 | 0.00 | 100 | 1006.9 |
| 20260505172048 | 55 | 180 | 0.0 | 0.0 | 0.00 | 0.00 | 0.00 | 100 | 1006.9 |
| 20260505171858 | 55 | 180 | 0.0 | 0.0 | 0.00 | 0.00 | 0.00 | 100 | 1006.9 |
| 20260505171524 | 55 | 180 | 0.0 | 0.0 | 0.00 | 0.00 | 0.00 | 100 | 1006.9 |
| 20260505171424 | 55 | 180 | 0.0 | 0.0 | 0.00 | 0.00 | 0.00 | 100 | 1006.9 |
| 20260505171054 | 55 | 180 | 0.0 | 0.0 | 0.00 | 0.00 | 0.00 | 100 | 1006.8 |
| 20260505170913 | 55 | 180 | 0.0 | 0.0 | 0.00 | 0.00 | 0.00 | 100 | 1006.8 |
| 20260505170527 | 55 | 180 | 0.0 | 0.0 | 0.00 | 0.00 | 0.00 | 100 | 1006.8 |
| 20260505170358 | 55 | 180 | 0.0 | 0.0 | 0.00 | 0.00 | 0.00 | 100 | 1006.8 |
| 20260505170007 | 54 | 180 | 0.0 | 0.0 | 0.00 | 0.00 | 0.00 | 100 | 1006.7 |
| 20260505165925 | 55 | 180 | 0.0 | 0.0 | 0.00 | 0.00 | 0.00 | 100 | 1006.8 |
| 20260505165530 | 54 | 180 | 0.0 | 0.0 | 0.00 | 0.00 | 0.00 | 100 | 1006.7 |
| 20260505165421 | 55 | 180 | 0.0 | 0.0 | 0.00 | 0.00 | 0.00 | 100 | 1006.8 |
| 20260505165100 | 54 | 180 | 0.0 | 0.0 | 0.00 | 0.00 | 0.00 | 100 | 1006.6 |
| 20260505164911 | 54 | 180 | 0.0 | 0.0 | 0.00 | 0.00 | 0.00 | 100 | 1006.7 |
| 20260505164530 | 54 | 180 | 0.0 | 0.0 | 0.00 | 0.00 | 0.00 | 100 | 1006.7 |
| 20260505164359 | 54 | 180 | 0.0 | 0.0 | 0.00 | 0.00 | 0.00 | 100 | 1006.7 |
| 20260505164010 | 54 | 180 | 0.0 | 0.0 | 0.00 | 0.00 | 0.00 | 100 | 1006.7 |
| 20260505163929 | 55 | 180 | 0.0 | 0.0 | 0.00 | 0.00 | 0.00 | 100 | 1006.7 |
| 20260505163519 | 54 | 180 | 0.0 | 0.0 | 0.00 | 0.00 | 0.00 | 100 | 1006.7 |
| 20260505163354 | 54 | 180 | 0.0 | 0.0 | 0.00 | 0.00 | 0.00 | 100 | 1006.7 |
| 20260505163101 | 54 | 175 | 0.0 | 0.0 | 0.00 | 0.00 | 0.00 | 100 | 1006.7 |
| 20260505162917 | 55 | 175 | 0.0 | 0.0 | 0.00 | 0.00 | 0.00 | 100 | 1006.6 |
| 20260505162503 | 54 | 175 | 0.0 | 0.0 | 0.00 | 0.00 | 0.00 | 100 | 1006.6 |
| 20260505162422 | 55 | 175 | 0.0 | 0.0 | 0.00 | 0.00 | 0.00 | 100 | 1006.6 |
| 20260505162017 | 54 | 162 | 0.0 | 0.0 | 0.00 | 0.00 | 0.00 | 100 | 1006.6 |
| 20260505161920 | 54 | 161 | 0.0 | 0.0 | 0.00 | 0.00 | 0.00 | 100 | 1006.6 |
| 20260505161558 | 54 | 161 | 0.0 | 0.0 | 0.00 | 0.00 | 0.00 | 100 | 1006.6 |
| 20260505161414 | 54 | 161 | 0.0 | 0.0 | 0.00 | 0.00 | 0.00 | 100 | 1006.6 |
| 20260505161019 | 54 | 161 | 0.0 | 0.0 | 0.00 | 0.00 | 0.00 | 100 | 1006.5 |
| 20260505160905 | 54 | 161 | 0.0 | 0.0 | 0.00 | 0.00 | 0.00 | 100 | 1006.6 |
| 20260505160546 | 54 | 161 | 0.0 | 0.0 | 0.00 | 0.00 | 0.00 | 100 | 1006.5 |
| 20260505160353 | 54 | 161 | 0.0 | 0.0 | 0.00 | 0.00 | 0.00 | 100 | 1006.6 |